Flag for Canada Weather past 2 weeks in Riverview, New Brunswick, Canada

Now
14 °F

Clear.


Feels Like: 2 °F
Forecast: 3 / 25 °F
Wind: 9 mph from Southwest

Location: Moncton

Current Time: Feb 28, 2015 at 8:48:16 PM

Latest Report: Feb 28, 2015 at 8:00 PM


Visibility: 15 mi

Pressure: 30.55 "Hg

Humidity: 62%

Dew point: 3 °F

Location of RiverviewLocation

Historic Weather in Riverview — Graph

°F

Riverview temperature yesterday

Maximum temperature yesterday: 14 °F (at 3:00 PM)
Minimum temperature yesterday: 0 °F (at 6:00 AM)
Average temperature yesterday: 7 °F

Past Weeks' High & Low Weather Summary

 TemperatureHumidityPressure
High34 °F (Feb 15, 8:00 PM)100% (Feb 15, 8:00 PM)30.57 "Hg (Feb 15, 8:00 PM)
Low-13 °F (Feb 24, 5:00 AM)35% (Feb 21, 3:00 PM)28.90 "Hg (Feb 16, 12:00 AM)
Average11 °F70%29.85 "Hg
* Reported Feb 13 7:00 PM — Feb 28 7:00 PM, Riverview, Weather by CustomWeather, © 2015

Note: Actual official high and low records may vary slightly from our data, if they occured in-between our weather recording intervals... More about our weather records

Advertising

Riverview weather history for previous 24 hours

 ConditionsComfort  
Time TempWeatherWind HumidityBarometerVisibility
7:00 PM
Sat, Feb 28
18 °FClear.7 mph53%30.54 "Hg15 mi
6:00 PM21 °FPassing clouds.14 mph45%30.51 "Hg15 mi
5:00 PM23 °FPassing clouds.14 mph42%30.51 "Hg15 mi
4:00 PM23 °FSunny.18 mph39%30.51 "Hg15 mi
3:00 PM21 °FSunny.16 mph45%30.51 "Hg15 mi
2:00 PM21 °FSunny.17 mph42%30.52 "Hg15 mi
1:00 PM19 °FSunny.14 mph45%30.54 "Hg15 mi
12:00 PM16 °FSunny.13 mph48%30.56 "Hg15 mi
11:00 AM12 °FSunny.14 mph48%30.57 "Hg15 mi
10:00 AM5 °FSunny.14 mph55%30.57 "Hg15 mi
9:00 AM1 °FSunny.12 mph60%30.56 "Hg15 mi
8:00 AM-4 °FSunny.10 mph65%30.53 "Hg15 mi
7:00 AM-4 °FSunny.9 mph71%30.51 "Hg15 mi
6:00 AM-4 °FClear.10 mph71%30.49 "Hg15 mi
5:00 AM-2 °FClear.10 mph65%30.47 "Hg15 mi
4:00 AM0 °FClear.10 mph65%30.44 "Hg15 mi
3:00 AM-2 °FClear.9 mph71%30.43 "Hg15 mi
2:00 AM-2 °FClear.9 mph77%30.42 "Hg15 mi
1:00 AM-2 °FClear.10 mph77%30.39 "Hg15 mi
12:00 AM1 °FClear.10 mph71%30.37 "Hg15 mi
11:00 PM
Fri, Feb 27
3 °FClear.10 mph66%30.34 "Hg15 mi
10:00 PM3 °FPassing clouds.10 mph66%30.32 "Hg15 mi
9:00 PM5 °FPassing clouds.8 mph60%30.30 "Hg15 mi
8:00 PM7 °FPassing clouds.7 mph61%30.28 "Hg15 mi
Weather by CustomWeather, © 2015

See weather overviewHow to use our weather pages